Weather History for Alamogordo, NM

Change the Weather History Date:

Monday, February 18, 2013

  Actual Average Record
Temperature  
Mean Temperature 48 °F -  
Max Temperature 62 °F 61 °F 76 °F (1986)
Min Temperature 35 °F 34 °F 17 °F (1960)
Degree Days  
Heating Degree Days 16    
Moisture  
Dew Point 2 °F    
Average Humidity 14    
Maximum Humidity 24    
Minimum Humidity 9    
Precipitation  
Precipitation 0.00 in - - ()
Sea Level Pressure  
Sea Level Pressure 30.01 in    
Wind  
Wind Speed 5 mph (North)    
Max Wind Speed 14 mph    
Max Gust Speed 18 mph    
Visibility 10 miles    
Events      
Averages and records for this station are not official NWS values.
T = Trace of Precipitation, MM = Missing Value Source: NWS Daily Summary

Daily Weather History Graph

Daily Weather History Graph

Search for Another Location

Airport:

Trip Planner

Search our weather history database for the weather conditions in past years. The results will help you decide how hot, cold, wet, or windy it might be!

Date:

Astronomy

Feb. 18, 2013 Rise Set
Actual Time 6:43 AM MST 5:52 PM MST
Civil Twilight 6:18 AM MST 6:17 PM MST
Nautical Twilight 5:49 AM MST 6:46 PM MST
Astronomical Twilight 5:21 AM MST 7:14 PM MST
Moon 11:49 AM MST 1:17 AM MST
Length of Visible Light 11h 58m
Length of Day
11h 08m
First Quarter, 59% of the Moon is Illuminated
Feb 18
First Quarter
Feb 25
Full
Mar 4
Last Quarter
Mar 11
New
Mar 19
First Quarter

Hourly Weather History & Observations

Time (MST) Temp. Windchill Dew Point Humidity Pressure Visibility Wind Dir Wind Speed Gust Speed Precip Events Conditions
12:15 AM 46.4 °F 44.3 °F 6.8 °F 20% 29.89 in 10.0 mi SSW 4.6 mph - N/A   Scattered Clouds
12:35 AM 48.2 °F - 3.2 °F 16% 29.90 in 10.0 mi Calm Calm - N/A   Partly Cloudy
12:55 AM 48.2 °F - 1.4 °F 15% 29.90 in 6.0 mi Calm Calm - N/A   Haze
1:15 AM 50.0 °F - 1.4 °F 14% 29.90 in 5.0 mi WSW 4.6 mph - N/A   Haze
1:35 AM 48.2 °F - 1.4 °F 15% 29.91 in 4.0 mi Calm Calm - N/A   Haze
1:55 AM 44.6 °F - 1.4 °F 17% 29.91 in 3.0 mi Calm Calm - N/A   Haze
2:15 AM 39.2 °F 37.0 °F -0.4 °F 19% 29.92 in 4.0 mi North 3.5 mph - N/A   Haze
2:35 AM 37.4 °F 32.1 °F -0.4 °F 20% 29.92 in 5.0 mi NNE 6.9 mph - N/A   Haze
2:55 AM 44.6 °F 40.2 °F 1.4 °F 17% 29.92 in 10.0 mi NNE 8.1 mph - N/A   Clear
3:15 AM 39.2 °F 32.5 °F 1.4 °F 21% 29.93 in 10.0 mi NNE 10.4 mph - N/A   Clear
3:35 AM 39.2 °F 33.0 °F 1.4 °F 21% 29.93 in 10.0 mi NNE 9.2 mph - N/A   Clear
3:55 AM 39.2 °F 33.0 °F 1.4 °F 21% 29.93 in 10.0 mi North 9.2 mph - N/A   Clear
4:15 AM 44.6 °F 40.2 °F 3.2 °F 18% 29.93 in 10.0 mi NNE 8.1 mph - N/A   Clear
4:35 AM 37.4 °F 31.4 °F 1.4 °F 22% 29.94 in 10.0 mi NNE 8.1 mph - N/A   Clear
6:35 AM 35.6 °F 28.6 °F 1.4 °F 24% 30.00 in 10.0 mi NE 9.2 mph - N/A   Clear
6:55 AM 37.4 °F 33.8 °F 1.4 °F 22% 30.01 in 10.0 mi NE 4.6 mph - N/A   Clear
7:15 AM 39.2 °F 35.9 °F 3.2 °F 22% 30.03 in 10.0 mi North 4.6 mph - N/A   Clear
7:35 AM 42.8 °F 41.1 °F 5.0 °F 21% 30.04 in 10.0 mi NE 3.5 mph - N/A   Clear
7:55 AM 44.6 °F 43.1 °F 5.0 °F 20% 30.05 in 10.0 mi NNE 3.5 mph - N/A   Clear
8:15 AM 48.2 °F - 5.0 °F 17% 30.05 in 10.0 mi NNE 5.8 mph - N/A   Clear
8:35 AM 53.6 °F - 5.0 °F 14% 30.05 in 10.0 mi North 6.9 mph - N/A   Clear
8:55 AM 53.6 °F - 5.0 °F 14% 30.06 in 10.0 mi NNW 9.2 mph - N/A   Clear
9:15 AM 55.4 °F - 5.0 °F 13% 30.07 in 10.0 mi NW 8.1 mph - N/A   Clear
9:35 AM 55.4 °F - 5.0 °F 13% 30.07 in 10.0 mi NNW 10.4 mph - N/A   Clear
9:55 AM 57.2 °F - 5.0 °F 12% 30.07 in 10.0 mi NNW 8.1 mph - N/A   Clear
10:15 AM 57.2 °F - 5.0 °F 12% 30.07 in 10.0 mi NNW 9.2 mph - N/A   Clear
10:35 AM 57.2 °F - 5.0 °F 12% 30.07 in 10.0 mi North 10.4 mph 17.3 mph N/A   Clear
10:55 AM 57.2 °F - 5.0 °F 12% 30.08 in 10.0 mi North 13.8 mph 17.3 mph N/A   Clear
11:15 AM 59.0 °F - 3.2 °F 11% 30.08 in 10.0 mi WNW 9.2 mph 17.3 mph N/A   Clear
11:55 AM 59.0 °F - 3.2 °F 11% 30.07 in 10.0 mi NW 11.5 mph 18.4 mph N/A   Clear
12:15 PM 59.0 °F - 1.4 °F 10% 30.07 in 10.0 mi WNW 11.5 mph 16.1 mph N/A   Clear
12:35 PM 59.0 °F - 1.4 °F 10% 30.05 in 10.0 mi NW 12.7 mph 17.3 mph N/A   Clear
12:55 PM 59.0 °F - 1.4 °F 10% 30.05 in 10.0 mi North 6.9 mph 16.1 mph N/A   Clear
1:15 PM 60.8 °F - 1.4 °F 9% 30.03 in 10.0 mi West 10.4 mph 17.3 mph N/A   Clear
1:35 PM 59.0 °F - 1.4 °F 10% 30.03 in 10.0 mi NNW 8.1 mph - N/A   Clear
1:55 PM 60.8 °F - 1.4 °F 9% 30.03 in 10.0 mi WNW 8.1 mph - N/A   Clear
2:15 PM 60.8 °F - 1.4 °F 9% 30.03 in 10.0 mi West 9.2 mph 17.3 mph N/A   Clear
2:35 PM 60.8 °F - 1.4 °F 9% 30.02 in 10.0 mi NNW 3.5 mph 16.1 mph N/A   Clear
2:55 PM 60.8 °F - 1.4 °F 9% 30.01 in 10.0 mi NE 8.1 mph - N/A   Clear
3:15 PM 60.8 °F - 1.4 °F 9% 30.01 in 10.0 mi Calm Calm - N/A   Clear
3:35 PM 62.6 °F - 1.4 °F 9% 30.01 in 10.0 mi North 6.9 mph - N/A   Clear
3:55 PM 60.8 °F - 1.4 °F 9% 30.01 in 10.0 mi North 8.1 mph - N/A   Clear
4:15 PM 59.0 °F - 1.4 °F 10% 30.01 in 10.0 mi North 4.6 mph - N/A   Clear
4:35 PM 59.0 °F - 1.4 °F 10% 30.01 in 10.0 mi Calm Calm - N/A   Clear
4:55 PM 57.2 °F - 12.2 °F 17% 30.01 in 10.0 mi SE 3.5 mph - N/A   Clear
5:15 PM 57.2 °F - 5.0 °F 12% 30.01 in 10.0 mi Calm Calm - N/A   Clear
5:55 PM 55.4 °F - -0.4 °F 10% 30.02 in 10.0 mi ESE 4.6 mph - N/A   Clear
6:15 PM 53.6 °F - -0.4 °F 11% 30.02 in 10.0 mi ESE 3.5 mph - N/A   Clear
6:35 PM 50.0 °F - -0.4 °F 13% 30.03 in 10.0 mi East 6.9 mph - N/A   Clear
6:55 PM 48.2 °F - -0.4 °F 13% 30.03 in 10.0 mi ENE 5.8 mph - N/A   Clear
7:15 PM 48.2 °F - -0.4 °F 13% 30.03 in 10.0 mi East 6.9 mph - N/A   Clear
7:35 PM 48.2 °F - -0.4 °F 13% 30.02 in 10.0 mi ESE 4.6 mph - N/A   Clear
8:15 PM 50.0 °F - -0.4 °F 13% 30.04 in 10.0 mi Calm Calm - N/A   Clear
8:35 PM 48.2 °F - -0.4 °F 13% 30.05 in 10.0 mi SSE 3.5 mph - N/A   Clear
8:55 PM 46.4 °F 43.5 °F 3.2 °F 17% 30.05 in 10.0 mi SSW 5.8 mph - N/A   Clear
9:15 PM 42.8 °F 38.6 °F 5.0 °F 21% 30.06 in 10.0 mi South 6.9 mph - N/A   Clear
9:55 PM 44.6 °F 40.7 °F -0.4 °F 15% 30.04 in 10.0 mi East 6.9 mph - N/A   Clear
10:15 PM 44.6 °F 42.2 °F -0.4 °F 15% 30.04 in 10.0 mi SE 4.6 mph - N/A   Clear
10:35 PM 46.4 °F - 1.4 °F 16% 30.04 in 10.0 mi Calm Calm - N/A   Clear
10:55 PM 50.0 °F - 3.2 °F 15% 30.04 in 10.0 mi Calm Calm - N/A   Clear
11:35 PM 46.4 °F 45.2 °F -0.4 °F 14% 30.04 in 10.0 mi SSW 3.5 mph - N/A   Clear
11:55 PM 44.6 °F 39.7 °F -0.4 °F 15% 30.05 in 10.0 mi SSW 9.2 mph - N/A   Clear